| time (UTC) | temp F | wind direction | speed MPH | gust MPH | rain 1hr in | rain 24hr in | rain mn in | humidity % | barometer mb |
| 20260905204556 | 97 | 96 | 7.0 | 14.0 | 0.00 | 0.00 | 0.00 | 28 | 1008.1 |
| 20260905204326 | 96 | 172 | 8.0 | 19.0 | 0.00 | 0.00 | 0.00 | 29 | 1008.1 |
| 20260905203553 | 96 | 142 | 7.0 | 19.0 | 0.00 | 0.00 | 0.00 | 29 | 1008.1 |
| 20260905203053 | 95 | 351 | 6.0 | 15.0 | 0.00 | 0.00 | 0.00 | 29 | 1008.2 |
| 20260905202825 | 96 | 148 | 6.0 | 14.0 | 0.00 | 0.00 | 0.00 | 29 | 1008.3 |
| 20260905202050 | 97 | 159 | 5.0 | 11.0 | 0.00 | 0.00 | 0.00 | 28 | 1008.4 |
| 20260905201549 | 97 | 44 | 4.0 | 8.0 | 0.00 | 0.00 | 0.00 | 28 | 1008.3 |
| 20260905201049 | 96 | 134 | 7.0 | 17.0 | 0.00 | 0.00 | 0.00 | 29 | 1008.5 |
| 20260905200548 | 96 | 141 | 9.0 | 17.0 | 0.00 | 0.00 | 0.00 | 29 | 1008.6 |
| 20260905200317 | 96 | 193 | 9.0 | 18.0 | 0.00 | 0.00 | 0.00 | 29 | 1008.5 |
| 20260905195755 | 96 | 202 | 7.0 | 18.0 | 0.00 | 0.00 | 0.00 | 29 | 1008.6 |
| 20260905195254 | 96 | 238 | 4.0 | 13.0 | 0.00 | 0.00 | 0.00 | 30 | 1008.6 |
| 20260905194521 | 96 | 63 | 5.0 | 13.0 | 0.00 | 0.00 | 0.00 | 30 | 1008.7 |
| 20260905194020 | 96 | 157 | 7.0 | 17.0 | 0.00 | 0.00 | 0.00 | 31 | 1008.8 |
| 20260905193522 | 96 | 155 | 8.0 | 17.0 | 0.00 | 0.00 | 0.00 | 30 | 1008.9 |
| 20260905193018 | 95 | 195 | 8.0 | 17.0 | 0.00 | 0.00 | 0.00 | 30 | 1008.8 |
| 20260905192748 | 95 | 130 | 7.0 | 17.0 | 0.00 | 0.00 | 0.00 | 31 | 1008.9 |
| 20260905192012 | 95 | 158 | 8.0 | 17.0 | 0.00 | 0.00 | 0.00 | 31 | 1009.0 |
| 20260905191507 | 95 | 159 | 9.0 | 15.0 | 0.00 | 0.00 | 0.00 | 32 | 1009.0 |
| 20260905191005 | 95 | 200 | 6.0 | 13.0 | 0.00 | 0.00 | 0.00 | 32 | 1009.0 |
| 20260905190504 | 95 | 0 | 6.0 | 12.0 | 0.00 | 0.00 | 0.00 | 32 | 1009.1 |
| 20260905190003 | 95 | 204 | 7.0 | 12.0 | 0.00 | 0.00 | 0.00 | 33 | 1009.1 |
| 20260905185503 | 94 | 179 | 9.0 | 16.0 | 0.00 | 0.00 | 0.00 | 33 | 1009.3 |
| 20260905185004 | 94 | 185 | 7.0 | 16.0 | 0.00 | 0.00 | 0.00 | 33 | 1009.3 |
| 20260905184501 | 94 | 166 | 6.0 | 13.0 | 0.00 | 0.00 | 0.00 | 34 | 1009.4 |
| 20260905184229 | 93 | 193 | 7.0 | 13.0 | 0.00 | 0.00 | 0.00 | 34 | 1009.4 |
| 20260905183731 | 94 | 212 | 6.0 | 13.0 | 0.00 | 0.00 | 0.00 | 34 | 1009.5 |
| 20260905182957 | 94 | 157 | 4.0 | 12.0 | 0.00 | 0.00 | 0.00 | 34 | 1009.6 |
| 20260905182457 | 93 | 193 | 5.0 | 12.0 | 0.00 | 0.00 | 0.00 | 35 | 1009.7 |
| 20260905181956 | 93 | 131 | 6.0 | 16.0 | 0.00 | 0.00 | 0.00 | 35 | 1009.7 |
| 20260905181456 | 93 | 231 | 7.0 | 16.0 | 0.00 | 0.00 | 0.00 | 36 | 1009.8 |
| 20260905180955 | 93 | 223 | 7.0 | 17.0 | 0.00 | 0.00 | 0.00 | 36 | 1009.8 |
| 20260905180455 | 93 | 186 | 6.0 | 17.0 | 0.00 | 0.00 | 0.00 | 37 | 1009.9 |
| 20260905175952 | 92 | 176 | 7.0 | 14.0 | 0.00 | 0.00 | 0.00 | 37 | 1010.0 |
| 20260905175723 | 92 | 195 | 7.0 | 14.0 | 0.00 | 0.00 | 0.00 | 36 | 1010.0 |
| 20260905174953 | 91 | 113 | 7.0 | 13.0 | 0.00 | 0.00 | 0.00 | 38 | 1010.1 |
| 20260905174724 | 91 | 0 | 7.0 | 13.0 | 0.00 | 0.00 | 0.00 | 37 | 1010.1 |
| 20260905174223 | 92 | 193 | 6.0 | 12.0 | 0.00 | 0.00 | 0.00 | 38 | 1010.1 |
| 20260905173724 | 91 | 146 | 7.0 | 14.0 | 0.00 | 0.00 | 0.00 | 37 | 1010.2 |
| 20260905172951 | 91 | 0 | 9.0 | 15.0 | 0.00 | 0.00 | 0.00 | 39 | 1010.2 |
| 20260905172452 | 90 | 189 | 9.0 | 16.0 | 0.00 | 0.00 | 0.00 | 40 | 1010.2 |
| 20260905171950 | 89 | 165 | 10.0 | 16.0 | 0.00 | 0.00 | 0.00 | 41 | 1010.3 |
| 20260905171451 | 89 | 187 | 10.0 | 16.0 | 0.00 | 0.00 | 0.00 | 43 | 1010.2 |
| 20260905170950 | 89 | 180 | 10.0 | 16.0 | 0.00 | 0.00 | 0.00 | 43 | 1010.3 |
| 20260905170452 | 89 | 185 | 9.0 | 16.0 | 0.00 | 0.00 | 0.00 | 44 | 1010.2 |
| 20260905165951 | 88 | 220 | 9.0 | 15.0 | 0.00 | 0.00 | 0.00 | 44 | 1010.3 |
| 20260905165449 | 88 | 0 | 9.0 | 16.0 | 0.00 | 0.00 | 0.00 | 45 | 1010.3 |
| 20260905164950 | 87 | 196 | 9.0 | 16.0 | 0.00 | 0.00 | 0.00 | 46 | 1010.3 |
| 20260905164716 | 87 | 200 | 11.0 | 17.0 | 0.00 | 0.00 | 0.00 | 47 | 1010.3 |
| 20260905163943 | 87 | 181 | 12.0 | 17.0 | 0.00 | 0.00 | 0.00 | 47 | 1010.3 |
| 20260905163442 | 86 | 179 | 11.0 | 17.0 | 0.00 | 0.00 | 0.00 | 48 | 1010.3 |
| 20260905162945 | 85 | 199 | 11.0 | 17.0 | 0.00 | 0.00 | 0.00 | 50 | 1010.3 |
| 20260905162941 | 86 | 0 | 10.0 | 17.0 | 0.00 | 0.00 | 0.00 | 48 | 1010.2 |
| 20260905161940 | 85 | 229 | 10.0 | 15.0 | 0.00 | 0.00 | 0.00 | 50 | 1010.4 |
| 20260905161710 | 84 | 192 | 10.0 | 16.0 | 0.00 | 0.00 | 0.00 | 53 | 1010.3 |
| 20260905160938 | 84 | 209 | 11.0 | 16.0 | 0.00 | 0.00 | 0.00 | 52 | 1010.3 |
| 20260905160439 | 83 | 212 | 11.0 | 16.0 | 0.00 | 0.00 | 0.00 | 53 | 1010.4 |
| 20260905155938 | 83 | 193 | 11.0 | 16.0 | 0.00 | 0.00 | 0.00 | 54 | 1010.3 |
| 20260905155440 | 83 | 171 | 11.0 | 16.0 | 0.00 | 0.00 | 0.00 | 55 | 1010.3 |
| 20260905154935 | 83 | 0 | 10.0 | 16.0 | 0.00 | 0.00 | 0.00 | 55 | 1010.3 |
| 20260905154434 | 82 | 200 | 11.0 | 17.0 | 0.00 | 0.00 | 0.00 | 55 | 1010.3 |
| 20260905153935 | 82 | 191 | 12.0 | 17.0 | 0.00 | 0.00 | 0.00 | 56 | 1010.4 |
| 20260905153705 | 81 | 189 | 11.0 | 17.0 | 0.00 | 0.00 | 0.00 | 57 | 1010.2 |
| 20260905152933 | 81 | 208 | 10.0 | 17.0 | 0.00 | 0.00 | 0.00 | 58 | 1010.1 |
| 20260905152432 | 80 | 210 | 10.0 | 15.0 | 0.00 | 0.00 | 0.00 | 59 | 1010.3 |
| 20260905151932 | 80 | 164 | 10.0 | 15.0 | 0.00 | 0.00 | 0.00 | 60 | 1010.3 |
| 20260905151430 | 79 | 212 | 10.0 | 14.0 | 0.00 | 0.00 | 0.00 | 62 | 1010.3 |
| 20260905150935 | 79 | 0 | 8.0 | 13.0 | 0.00 | 0.00 | 0.00 | 63 | 1010.4 |
| 20260905150930 | 79 | 0 | 9.0 | 14.0 | 0.00 | 0.00 | 0.00 | 62 | 1010.4 |
| 20260905145929 | 78 | 217 | 9.0 | 12.0 | 0.00 | 0.00 | 0.00 | 64 | 1010.5 |
| 20260905145426 | 77 | 173 | 10.0 | 17.0 | 0.00 | 0.00 | 0.00 | 66 | 1010.6 |
| 20260905144927 | 77 | 224 | 12.0 | 17.0 | 0.00 | 0.00 | 0.00 | 66 | 1010.7 |
| 20260905144427 | 77 | 238 | 11.0 | 18.0 | 0.00 | 0.00 | 0.00 | 67 | 1010.7 |
| 20260905143924 | 76 | 0 | 11.0 | 18.0 | 0.00 | 0.00 | 0.00 | 67 | 1010.7 |
| 20260905143424 | 76 | 0 | 10.0 | 15.0 | 0.00 | 0.00 | 0.00 | 68 | 1010.8 |
| 20260905142925 | 75 | 212 | 10.0 | 14.0 | 0.00 | 0.00 | 0.00 | 69 | 1010.7 |
| 20260905142422 | 75 | 221 | 10.0 | 14.0 | 0.00 | 0.00 | 0.00 | 69 | 1010.9 |
| 20260905141923 | 75 | 0 | 10.0 | 14.0 | 0.00 | 0.00 | 0.00 | 69 | 1010.9 |
| 20260905141423 | 75 | 184 | 9.0 | 14.0 | 0.00 | 0.00 | 0.00 | 69 | 1010.9 |
| 20260905140924 | 75 | 195 | 9.0 | 13.0 | 0.00 | 0.00 | 0.00 | 69 | 1010.9 |
| 20260905140920 | 75 | 168 | 9.0 | 14.0 | 0.00 | 0.00 | 0.00 | 69 | 1010.9 |
| 20260905135921 | 75 | 151 | 8.0 | 13.0 | 0.00 | 0.00 | 0.00 | 70 | 1010.9 |
| 20260905135649 | 74 | 174 | 8.0 | 14.0 | 0.00 | 0.00 | 0.00 | 70 | 1010.8 |
| 20260905134919 | 74 | 0 | 8.0 | 14.0 | 0.00 | 0.00 | 0.00 | 70 | 1010.8 |
| 20260905134418 | 74 | 159 | 7.0 | 12.0 | 0.00 | 0.00 | 0.00 | 71 | 1010.8 |
| 20260905134149 | 74 | 152 | 8.0 | 13.0 | 0.00 | 0.00 | 0.00 | 71 | 1010.7 |
| 20260905133418 | 73 | 182 | 7.0 | 13.0 | 0.00 | 0.00 | 0.00 | 72 | 1010.7 |
| 20260905132919 | 73 | 145 | 7.0 | 11.0 | 0.00 | 0.00 | 0.00 | 72 | 1010.6 |
| 20260905132415 | 73 | 179 | 8.0 | 11.0 | 0.00 | 0.00 | 0.00 | 73 | 1010.5 |
| 20260905131915 | 72 | 151 | 8.0 | 11.0 | 0.00 | 0.00 | 0.00 | 73 | 1010.5 |
| 20260905131644 | 72 | 160 | 7.0 | 10.0 | 0.00 | 0.00 | 0.00 | 73 | 1010.4 |
| 20260905130913 | 72 | 154 | 7.0 | 11.0 | 0.00 | 0.00 | 0.00 | 74 | 1010.4 |
| 20260905130413 | 71 | 156 | 7.0 | 11.0 | 0.00 | 0.00 | 0.00 | 74 | 1010.3 |
| 20260905130142 | 71 | 162 | 7.0 | 10.0 | 0.00 | 0.00 | 0.00 | 74 | 1010.2 |
| 20260905125410 | 71 | 158 | 7.0 | 10.0 | 0.00 | 0.00 | 0.00 | 75 | 1010.1 |
| 20260905124912 | 71 | 157 | 7.0 | 9.0 | 0.00 | 0.00 | 0.00 | 75 | 1010.2 |
| 20260905124410 | 70 | 162 | 7.0 | 9.0 | 0.00 | 0.00 | 0.00 | 74 | 1010.1 |
| 20260905124139 | 71 | 184 | 7.0 | 9.0 | 0.00 | 0.00 | 0.00 | 74 | 1009.9 |
| 20260905123408 | 71 | 185 | 7.0 | 10.0 | 0.00 | 0.00 | 0.00 | 74 | 1009.9 |
| 20260905122908 | 71 | 203 | 6.0 | 10.0 | 0.00 | 0.00 | 0.00 | 74 | 1009.8 |
| 20260905122639 | 71 | 194 | 7.0 | 9.0 | 0.00 | 0.00 | 0.00 | 74 | 1009.8 |
| 20260905121909 | 71 | 201 | 7.0 | 9.0 | 0.00 | 0.00 | 0.00 | 74 | 1009.8 |
| 20260905121639 | 70 | 201 | 6.0 | 9.0 | 0.00 | 0.00 | 0.00 | 74 | 1009.7 |
| 20260905120908 | 70 | 201 | 5.0 | 8.0 | 0.00 | 0.00 | 0.00 | 74 | 1009.6 |
| 20260905120408 | 70 | 0 | 6.0 | 9.0 | 0.00 | 0.00 | 0.00 | 74 | 1009.6 |
| 20260905115906 | 70 | 181 | 5.0 | 9.0 | 0.00 | 0.00 | 0.00 | 74 | 1009.5 |
| 20260905115407 | 70 | 208 | 5.0 | 8.0 | 0.00 | 0.00 | 0.00 | 74 | 1009.5 |
| 20260905115139 | 70 | 191 | 4.0 | 7.0 | 0.00 | 0.00 | 0.00 | 74 | 1009.5 |
| 20260905114404 | 70 | 179 | 4.0 | 6.0 | 0.00 | 0.00 | 0.00 | 73 | 1009.5 |
| 20260905113904 | 71 | 198 | 5.0 | 7.0 | 0.00 | 0.00 | 0.00 | 73 | 1009.6 |
| 20260905113404 | 71 | 188 | 5.0 | 7.0 | 0.00 | 0.00 | 0.00 | 72 | 1009.6 |
| 20260905112903 | 71 | 177 | 5.0 | 7.0 | 0.00 | 0.00 | 0.00 | 72 | 1009.6 |
| 20260905112632 | 71 | 200 | 5.0 | 7.0 | 0.00 | 0.00 | 0.00 | 72 | 1009.6 |
| 20260905111901 | 71 | 180 | 5.0 | 8.0 | 0.00 | 0.00 | 0.00 | 72 | 1009.6 |
| 20260905111358 | 71 | 197 | 4.0 | 8.0 | 0.00 | 0.00 | 0.00 | 72 | 1009.6 |
| 20260905111129 | 71 | 176 | 5.0 | 7.0 | 0.00 | 0.00 | 0.00 | 71 | 1009.5 |
| 20260905110354 | 71 | 180 | 4.0 | 6.0 | 0.00 | 0.00 | 0.00 | 71 | 1009.5 |
| 20260905110126 | 72 | 161 | 3.0 | 6.0 | 0.00 | 0.00 | 0.00 | 70 | 1009.5 |
| 20260905105354 | 72 | 193 | 3.0 | 6.0 | 0.00 | 0.00 | 0.00 | 69 | 1009.5 |
| 20260905104855 | 73 | 170 | 5.0 | 9.0 | 0.00 | 0.00 | 0.00 | 69 | 1009.6 |
| 20260905104355 | 73 | 198 | 6.0 | 9.0 | 0.00 | 0.00 | 0.00 | 69 | 1009.5 |
| 20260905103852 | 73 | 229 | 5.0 | 8.0 | 0.00 | 0.00 | 0.00 | 69 | 1009.5 |
| 20260905103350 | 73 | 209 | 5.0 | 8.0 | 0.00 | 0.00 | 0.00 | 68 | 1009.4 |
| 20260905102850 | 74 | 198 | 3.0 | 5.0 | 0.00 | 0.00 | 0.00 | 68 | 1009.5 |
| 20260905102350 | 74 | 195 | 3.0 | 5.0 | 0.00 | 0.00 | 0.00 | 67 | 1009.5 |
| 20260905101850 | 74 | 183 | 4.0 | 6.0 | 0.00 | 0.00 | 0.00 | 67 | 1009.5 |
| 20260905101350 | 74 | 165 | 4.0 | 6.0 | 0.00 | 0.00 | 0.00 | 67 | 1009.6 |
| 20260905100848 | 74 | 169 | 4.0 | 7.0 | 0.00 | 0.00 | 0.00 | 66 | 1009.6 |
| 20260905100348 | 74 | 186 | 4.0 | 7.0 | 0.00 | 0.00 | 0.00 | 66 | 1009.7 |
| 20260905095848 | 75 | 196 | 4.0 | 7.0 | 0.00 | 0.00 | 0.00 | 66 | 1009.7 |
| 20260905095348 | 75 | 201 | 4.0 | 7.0 | 0.00 | 0.00 | 0.00 | 65 | 1009.6 |
| 20260905095117 | 75 | 194 | 5.0 | 8.0 | 0.00 | 0.00 | 0.00 | 65 | 1009.6 |
| 20260905094344 | 75 | 160 | 5.0 | 9.0 | 0.00 | 0.00 | 0.00 | 65 | 1009.6 |
| 20260905093842 | 75 | 162 | 5.0 | 9.0 | 0.00 | 0.00 | 0.00 | 65 | 1009.6 |
| 20260905093342 | 75 | 195 | 6.0 | 9.0 | 0.00 | 0.00 | 0.00 | 65 | 1009.7 |
| 20260905092839 | 75 | 188 | 6.0 | 9.0 | 0.00 | 0.00 | 0.00 | 65 | 1009.7 |
| 20260905092345 | 75 | 186 | 6.0 | 10.0 | 0.00 | 0.00 | 0.00 | 65 | 1009.7 |
| 20260905092341 | 75 | 187 | 6.0 | 10.0 | 0.00 | 0.00 | 0.00 | 65 | 1009.7 |
| 20260905091609 | 75 | 186 | 6.0 | 9.0 | 0.00 | 0.00 | 0.00 | 65 | 1009.6 |
| 20260905090838 | 75 | 146 | 6.0 | 9.0 | 0.00 | 0.00 | 0.00 | 64 | 1009.7 |
| 20260905090339 | 75 | 148 | 6.0 | 10.0 | 0.00 | 0.00 | 0.00 | 64 | 1009.7 |
| 20260905085838 | 76 | 156 | 6.0 | 10.0 | 0.00 | 0.00 | 0.00 | 64 | 1009.6 |
| 20260905085336 | 76 | 162 | 5.0 | 8.0 | 0.00 | 0.00 | 0.00 | 64 | 1009.6 |
| 20260905085107 | 76 | 210 | 6.0 | 9.0 | 0.00 | 0.00 | 0.00 | 63 | 1009.6 |
| 20260905084336 | 76 | 159 | 7.0 | 11.0 | 0.00 | 0.00 | 0.00 | 62 | 1009.6 |
| 20260905083836 | 77 | 159 | 8.0 | 11.0 | 0.00 | 0.00 | 0.00 | 62 | 1009.7 |
| 20260905083336 | 77 | 200 | 8.0 | 12.0 | 0.00 | 0.00 | 0.00 | 62 | 1009.7 |
| 20260905082837 | 77 | 193 | 8.0 | 12.0 | 0.00 | 0.00 | 0.00 | 61 | 1009.7 |
| 20260905082334 | 77 | 189 | 9.0 | 13.0 | 0.00 | 0.00 | 0.00 | 61 | 1009.6 |
| 20260905081834 | 78 | 0 | 10.0 | 14.0 | 0.00 | 0.00 | 0.00 | 61 | 1009.6 |
| 20260905081334 | 78 | 0 | 10.0 | 14.0 | 0.00 | 0.00 | 0.00 | 60 | 1009.6 |
| 20260905080832 | 78 | 181 | 10.0 | 15.0 | 0.00 | 0.00 | 0.00 | 60 | 1009.6 |
| 20260905080333 | 78 | 0 | 11.0 | 15.0 | 0.00 | 0.00 | 0.00 | 60 | 1009.4 |
| 20260905075828 | 78 | 188 | 11.0 | 15.0 | 0.00 | 0.00 | 0.00 | 59 | 1009.5 |
| 20260905075328 | 78 | 173 | 12.0 | 17.0 | 0.00 | 0.00 | 0.00 | 59 | 1009.5 |
| 20260905074828 | 78 | 192 | 13.0 | 17.0 | 0.00 | 0.00 | 0.00 | 59 | 1009.5 |
| 20260905074558 | 78 | 205 | 13.0 | 17.0 | 0.00 | 0.00 | 0.00 | 59 | 1009.4 |
| 20260905073828 | 78 | 0 | 13.0 | 19.0 | 0.00 | 0.00 | 0.00 | 58 | 1009.5 |
| 20260905073328 | 79 | 0 | 13.0 | 19.0 | 0.00 | 0.00 | 0.00 | 58 | 1009.6 |
| 20260905072824 | 79 | 0 | 12.0 | 18.0 | 0.00 | 0.00 | 0.00 | 58 | 1009.6 |
| 20260905072555 | 79 | 0 | 13.0 | 19.0 | 0.00 | 0.00 | 0.00 | 58 | 1009.7 |
| 20260905071822 | 79 | 200 | 13.0 | 20.0 | 0.00 | 0.00 | 0.00 | 58 | 1009.7 |
| 20260905071321 | 79 | 0 | 13.0 | 20.0 | 0.00 | 0.00 | 0.00 | 58 | 1009.8 |
| 20260905070823 | 79 | 234 | 13.0 | 20.0 | 0.00 | 0.00 | 0.00 | 58 | 1009.8 |
| 20260905070322 | 79 | 0 | 13.0 | 20.0 | 0.00 | 0.00 | 0.00 | 58 | 1009.9 |
| 20260905065822 | 79 | 193 | 12.0 | 17.0 | 0.00 | 0.00 | 0.00 | 58 | 1010.0 |
| 20260905065552 | 79 | 0 | 13.0 | 17.0 | 0.00 | 0.00 | 0.00 | 57 | 1010.0 |
| 20260905064821 | 79 | 184 | 12.0 | 18.0 | 0.00 | 0.00 | 0.00 | 57 | 1010.0 |
| 20260905064322 | 79 | 191 | 10.0 | 18.0 | 0.00 | 0.00 | 0.00 | 57 | 1010.0 |
| 20260905063824 | 79 | 195 | 9.0 | 14.0 | 0.00 | 0.00 | 0.00 | 57 | 1010.1 |
| 20260905063820 | 79 | 207 | 10.0 | 15.0 | 0.00 | 0.00 | 0.00 | 57 | 1010.0 |
| 20260905063047 | 79 | 210 | 8.0 | 14.0 | 0.00 | 0.00 | 0.00 | 56 | 1010.1 |
| 20260905062315 | 79 | 165 | 7.0 | 13.0 | 0.00 | 0.00 | 0.00 | 56 | 1010.2 |
| 20260905061815 | 79 | 172 | 7.0 | 12.0 | 0.00 | 0.00 | 0.00 | 56 | 1010.2 |
| 20260905061314 | 79 | 208 | 8.0 | 12.0 | 0.00 | 0.00 | 0.00 | 56 | 1010.2 |
| 20260905061045 | 80 | 0 | 7.0 | 11.0 | 0.00 | 0.00 | 0.00 | 55 | 1010.2 |
| 20260905060312 | 80 | 196 | 8.0 | 12.0 | 0.00 | 0.00 | 0.00 | 55 | 1010.2 |
| 20260905055811 | 80 | 197 | 9.0 | 12.0 | 0.00 | 0.00 | 0.00 | 54 | 1010.2 |
| 20260905055312 | 80 | 192 | 8.0 | 13.0 | 0.00 | 0.00 | 0.00 | 54 | 1010.2 |
| 20260905054811 | 80 | 195 | 9.0 | 13.0 | 0.00 | 0.00 | 0.00 | 53 | 1010.2 |
| 20260905054311 | 81 | 167 | 10.0 | 15.0 | 0.00 | 0.00 | 0.00 | 53 | 1010.1 |
| 20260905053812 | 81 | 150 | 11.0 | 15.0 | 0.00 | 0.00 | 0.00 | 52 | 1010.2 |
| 20260905053538 | 81 | 202 | 11.0 | 16.0 | 0.00 | 0.00 | 0.00 | 52 | 1010.2 |
| 20260905052812 | 81 | 202 | 9.0 | 15.0 | 0.00 | 0.00 | 0.00 | 52 | 1010.2 |
| 20260905052807 | 81 | 200 | 10.0 | 16.0 | 0.00 | 0.00 | 0.00 | 52 | 1010.1 |
| 20260905052039 | 81 | 193 | 9.0 | 13.0 | 0.00 | 0.00 | 0.00 | 51 | 1010.1 |
| 20260905051307 | 82 | 178 | 9.0 | 13.0 | 0.00 | 0.00 | 0.00 | 51 | 1010.3 |
| 20260905050808 | 82 | 209 | 10.0 | 15.0 | 0.00 | 0.00 | 0.00 | 51 | 1010.4 |
| 20260905050307 | 82 | 217 | 10.0 | 16.0 | 0.00 | 0.00 | 0.00 | 51 | 1010.4 |
| 20260905045808 | 82 | 193 | 8.0 | 16.0 | 0.00 | 0.00 | 0.00 | 51 | 1010.2 |
| 20260905045306 | 82 | 169 | 6.0 | 12.0 | 0.00 | 0.00 | 0.00 | 50 | 1010.0 |
| 20260905044803 | 82 | 0 | 6.0 | 12.0 | 0.00 | 0.00 | 0.00 | 50 | 1010.0 |
| 20260905044304 | 82 | 158 | 5.0 | 11.0 | 0.00 | 0.00 | 0.00 | 49 | 1010.1 |
| 20260905044033 | 83 | 137 | 6.0 | 10.0 | 0.00 | 0.00 | 0.00 | 49 | 1010.1 |
| 20260905043302 | 83 | 146 | 5.0 | 10.0 | 0.00 | 0.00 | 0.00 | 48 | 1010.1 |
| 20260905042803 | 83 | 124 | 5.0 | 9.0 | 0.00 | 0.00 | 0.00 | 47 | 1010.0 |
| 20260905042300 | 84 | 153 | 6.0 | 12.0 | 0.00 | 0.00 | 0.00 | 46 | 1010.0 |
| 20260905041800 | 84 | 110 | 8.0 | 13.0 | 0.00 | 0.00 | 0.00 | 46 | 1010.1 |
| 20260905041300 | 84 | 138 | 9.0 | 16.0 | 0.00 | 0.00 | 0.00 | 45 | 1010.0 |
| 20260905040800 | 85 | 152 | 7.0 | 16.0 | 0.00 | 0.00 | 0.00 | 44 | 1010.0 |
| 20260905040258 | 85 | 116 | 8.0 | 15.0 | 0.00 | 0.00 | 0.00 | 43 | 1010.0 |
| 20260905040027 | 85 | 91 | 9.0 | 16.0 | 0.00 | 0.00 | 0.00 | 43 | 1010.0 |
| 20260905035256 | 85 | 163 | 8.0 | 16.0 | 0.00 | 0.00 | 0.00 | 42 | 1009.9 |
| 20260905035027 | 86 | 158 | 6.0 | 13.0 | 0.00 | 0.00 | 0.00 | 40 | 1009.9 |
| 20260905034253 | 86 | 128 | 6.0 | 13.0 | 0.00 | 0.00 | 0.00 | 39 | 1009.9 |
| 20260905033754 | 87 | 157 | 6.0 | 12.0 | 0.00 | 0.00 | 0.00 | 38 | 1009.8 |
| 20260905033255 | 87 | 158 | 4.0 | 10.0 | 0.00 | 0.00 | 0.00 | 37 | 1009.9 |
| 20260905032753 | 87 | 208 | 4.0 | 12.0 | 0.00 | 0.00 | 0.00 | 36 | 1009.8 |
| 20260905032254 | 87 | 140 | 6.0 | 12.0 | 0.00 | 0.00 | 0.00 | 36 | 1009.7 |
| 20260905031754 | 87 | 18 | 6.0 | 10.0 | 0.00 | 0.00 | 0.00 | 36 | 1009.4 |
| 20260905031249 | 87 | 49 | 4.0 | 10.0 | 0.00 | 0.00 | 0.00 | 35 | 1009.4 |
| 20260905030750 | 88 | 17 | 3.0 | 5.0 | 0.00 | 0.00 | 0.00 | 35 | 1009.3 |
| 20260905030248 | 87 | 45 | 2.0 | 5.0 | 0.00 | 0.00 | 0.00 | 35 | 1009.0 |
| 20260905025747 | 87 | 324 | 2.0 | 4.0 | 0.00 | 0.00 | 0.00 | 36 | 1008.9 |
| 20260905025245 | 87 | 299 | 1.0 | 4.0 | 0.00 | 0.00 | 0.00 | 36 | 1008.8 |
| 20260905024741 | 87 | 265 | 0.0 | 3.0 | 0.00 | 0.00 | 0.00 | 37 | 1008.7 |
| 20260905024241 | 87 | 41 | 2.0 | 4.0 | 0.00 | 0.00 | 0.00 | 36 | 1008.6 |
| 20260905023739 | 88 | 48 | 3.0 | 5.0 | 0.00 | 0.00 | 0.00 | 36 | 1008.5 |
| 20260905023241 | 88 | 53 | 2.0 | 5.0 | 0.00 | 0.00 | 0.00 | 36 | 1008.4 |
| 20260905022740 | 88 | 52 | 1.0 | 6.0 | 0.00 | 0.00 | 0.00 | 35 | 1008.3 |
| 20260905022240 | 89 | 60 | 4.0 | 7.0 | 0.00 | 0.00 | 0.00 | 35 | 1008.3 |
| 20260905021726 | 89 | 60 | 4.0 | 11.0 | 0.00 | 0.00 | 0.00 | 34 | 1008.2 |
| 20260905021226 | 90 | 70 | 3.0 | 11.0 | 0.00 | 0.00 | 0.00 | 31 | 1008.2 |
| 20260905020957 | 91 | 89 | 2.0 | 5.0 | 0.00 | 0.00 | 0.00 | 31 | 1008.1 |
| 20260905020226 | 91 | 167 | 2.0 | 4.0 | 0.00 | 0.00 | 0.00 | 30 | 1008.0 |
| 20260905015727 | 91 | 136 | 2.0 | 4.0 | 0.00 | 0.00 | 0.00 | 30 | 1007.9 |
| 20260905015225 | 91 | 158 | 3.0 | 7.0 | 0.00 | 0.00 | 0.00 | 29 | 1007.9 |
| 20260905014725 | 91 | 167 | 3.0 | 7.0 | 0.00 | 0.00 | 0.00 | 29 | 1008.0 |
| 20260905014222 | 91 | 214 | 3.0 | 5.0 | 0.00 | 0.00 | 0.00 | 30 | 1008.0 |
| 20260905013722 | 91 | 165 | 2.0 | 5.0 | 0.00 | 0.00 | 0.00 | 30 | 1007.9 |
| 20260905013222 | 91 | 205 | 3.0 | 6.0 | 0.00 | 0.00 | 0.00 | 30 | 1008.1 |
| 20260905012719 | 91 | 214 | 3.0 | 6.0 | 0.00 | 0.00 | 0.00 | 31 | 1008.0 |
| 20260905012216 | 90 | 263 | 2.0 | 6.0 | 0.00 | 0.00 | 0.00 | 31 | 1008.1 |
| 20260905011717 | 90 | 326 | 1.0 | 4.0 | 0.00 | 0.00 | 0.00 | 32 | 1008.0 |
| 20260905011211 | 90 | 267 | 1.0 | 3.0 | 0.00 | 0.00 | 0.00 | 33 | 1008.1 |
| 20260905010708 | 91 | 313 | 3.0 | 7.0 | 0.00 | 0.00 | 0.00 | 32 | 1008.0 |
| 20260905010206 | 91 | 0 | 5.0 | 9.0 | 0.00 | 0.00 | 0.00 | 32 | 1008.1 |
| 20260905005705 | 92 | 286 | 3.0 | 9.0 | 0.00 | 0.00 | 0.00 | 30 | 1007.9 |
| 20260905005206 | 92 | 271 | 3.0 | 7.0 | 0.00 | 0.00 | 0.00 | 29 | 1007.9 |
| 20260905004705 | 92 | 0 | 3.0 | 7.0 | 0.00 | 0.00 | 0.00 | 30 | 1007.8 |
| 20260905004204 | 92 | 184 | 5.0 | 9.0 | 0.00 | 0.00 | 0.00 | 31 | 1007.8 |
| 20260905003703 | 92 | 216 | 5.0 | 11.0 | 0.00 | 0.00 | 0.00 | 31 | 1007.8 |
| 20260905003208 | 93 | 312 | 8.0 | 14.0 | 0.00 | 0.00 | 0.00 | 31 | 1007.7 |
| 20260905003204 | 93 | 205 | 7.0 | 12.0 | 0.00 | 0.00 | 0.00 | 32 | 1007.8 |
| 20260905002201 | 93 | 226 | 10.0 | 18.0 | 0.00 | 0.00 | 0.00 | 31 | 1007.6 |
| 20260905001657 | 93 | 226 | 11.0 | 22.0 | 0.00 | 0.00 | 0.00 | 30 | 1007.6 |
| 20260905001159 | 94 | 262 | 12.0 | 22.0 | 0.00 | 0.00 | 0.00 | 30 | 1007.6 |
| 20260905000657 | 95 | 231 | 12.0 | 21.0 | 0.00 | 0.00 | 0.00 | 28 | 1007.5 |
| 20260905000429 | 95 | 231 | 11.0 | 16.0 | 0.00 | 0.00 | 0.00 | 26 | 1007.5 |
| 20260904235657 | 95 | 157 | 10.0 | 16.0 | 0.00 | 0.00 | 0.00 | 25 | 1007.5 |
| 20260904235158 | 95 | 165 | 10.0 | 16.0 | 0.00 | 0.00 | 0.00 | 25 | 1007.4 |
| 20260904234655 | 95 | 163 | 9.0 | 16.0 | 0.00 | 0.00 | 0.00 | 24 | 1007.3 |
| 20260904234155 | 95 | 146 | 9.0 | 16.0 | 0.00 | 0.00 | 0.00 | 25 | 1007.2 |
| 20260904233656 | 96 | 139 | 9.0 | 16.0 | 0.00 | 0.00 | 0.00 | 25 | 1007.2 |
| 20260904233155 | 96 | 212 | 10.0 | 16.0 | 0.00 | 0.00 | 0.00 | 25 | 1007.1 |
| 20260904232656 | 96 | 133 | 11.0 | 19.0 | 0.00 | 0.00 | 0.00 | 24 | 1007.0 |
| 20260904232151 | 96 | 156 | 11.0 | 19.0 | 0.00 | 0.00 | 0.00 | 24 | 1007.0 |
| 20260904231653 | 96 | 215 | 11.0 | 17.0 | 0.00 | 0.00 | 0.00 | 24 | 1007.0 |
| 20260904231649 | 96 | 169 | 11.0 | 17.0 | 0.00 | 0.00 | 0.00 | 24 | 1007.0 |
| 20260904230649 | 96 | 205 | 10.0 | 17.0 | 0.00 | 0.00 | 0.00 | 25 | 1006.9 |
| 20260904230147 | 96 | 226 | 9.0 | 17.0 | 0.00 | 0.00 | 0.00 | 25 | 1006.9 |
| 20260904225647 | 96 | 171 | 9.0 | 14.0 | 0.00 | 0.00 | 0.00 | 25 | 1006.8 |
| 20260904225152 | 96 | 198 | 10.0 | 17.0 | 0.00 | 0.00 | 0.00 | 24 | 1006.9 |
| 20260904225147 | 96 | 158 | 10.0 | 14.0 | 0.00 | 0.00 | 0.00 | 24 | 1006.9 |
| 20260904224145 | 97 | 179 | 9.0 | 17.0 | 0.00 | 0.00 | 0.00 | 24 | 1006.8 |
| 20260904223643 | 97 | 174 | 11.0 | 20.0 | 0.00 | 0.00 | 0.00 | 24 | 1006.8 |
| 20260904223143 | 97 | 170 | 13.0 | 20.0 | 0.00 | 0.00 | 0.00 | 24 | 1007.0 |
| 20260904222644 | 97 | 154 | 12.0 | 21.0 | 0.00 | 0.00 | 0.00 | 24 | 1007.0 |
| 20260904222143 | 97 | 136 | 10.0 | 21.0 | 0.00 | 0.00 | 0.00 | 24 | 1007.0 |
| 20260904221643 | 97 | 149 | 10.0 | 19.0 | 0.00 | 0.00 | 0.00 | 25 | 1007.0 |
| 20260904221144 | 97 | 169 | 11.0 | 19.0 | 0.00 | 0.00 | 0.00 | 24 | 1007.0 |
| 20260904220639 | 98 | 108 | 8.0 | 18.0 | 0.00 | 0.00 | 0.00 | 25 | 1006.9 |
| 20260904220139 | 97 | 112 | 8.0 | 16.0 | 0.00 | 0.00 | 0.00 | 25 | 1007.0 |
| 20260904215639 | 97 | 154 | 11.0 | 23.0 | 0.00 | 0.00 | 0.00 | 25 | 1007.1 |
| 20260904215408 | 97 | 191 | 13.0 | 23.0 | 0.00 | 0.00 | 0.00 | 25 | 1007.1 |
| 20260904214637 | 96 | 150 | 10.0 | 17.0 | 0.00 | 0.00 | 0.00 | 25 | 1007.0 |
| 20260904214135 | 97 | 167 | 8.0 | 14.0 | 0.00 | 0.00 | 0.00 | 25 | 1007.1 |
| 20260904213635 | 97 | 221 | 9.0 | 16.0 | 0.00 | 0.00 | 0.00 | 24 | 1007.2 |
| 20260904213135 | 98 | 164 | 9.0 | 16.0 | 0.00 | 0.00 | 0.00 | 23 | 1007.2 |
| 20260904212636 | 99 | 172 | 7.0 | 14.0 | 0.00 | 0.00 | 0.00 | 23 | 1007.2 |
| 20260904212133 | 99 | 128 | 8.0 | 15.0 | 0.00 | 0.00 | 0.00 | 24 | 1007.2 |
| 20260904211633 | 98 | 157 | 10.0 | 18.0 | 0.00 | 0.00 | 0.00 | 23 | 1007.3 |
| 20260904211133 | 99 | 98 | 9.0 | 18.0 | 0.00 | 0.00 | 0.00 | 23 | 1007.4 |
| 20260904210904 | 98 | 161 | 6.0 | 13.0 | 0.00 | 0.00 | 0.00 | 23 | 1007.3 |
| 20260904210133 | 98 | 266 | 7.0 | 15.0 | 0.00 | 0.00 | 0.00 | 25 | 1007.5 |
| 20260904205630 | 97 | 207 | 8.0 | 16.0 | 0.00 | 0.00 | 0.00 | 25 | 1007.5 |
| 20260904205129 | 97 | 214 | 6.0 | 16.0 | 0.00 | 0.00 | 0.00 | 25 | 1007.5 |